Погода в Бресте

Поиск расширенной информации на нашем сайте:

Полезная информация:

Новости сайта



02.01.2020
Опубликован Долгосрочный прогноз погоды по городам России и ближнего зарубежья на январь 2020 года.
Карты: Прогноз на январь и февраль 2020 года, Сравнение прогнозируемой аномалии приземной температуры воздуха на январь 2020 года по разным моделям.




Погода в Бресте - сегодня

Время (UTC), дата Ветер
(°,м/с) 
Видим.   Явления Облачность Т
(°С)
Тd
(°С)
f(%) Тe
(°С)
Pmin
(гПа)
dP
(гПа)
Po
(мм)
O2
(г/м3)
Тmin Tmax R s Состояние
почвы
12 16.04.21 010 (С) 20000 м  {морось}  10/10 180 м 
[St]
+8 +7.6 97 +8  1013.2  0.5  747  291           
15 16.04.21 360 (С) 20000 м    10/10 270 м 
[St]
+8.3 +7.4 94 +8  1013.7  0.5  747  291           
18 16.04.21 340 (С) 10 км  слаб. дождь  10/10 210 м 
[Frnb|Ns]
+7.8 +7.4 97 +9  1014.8  748  292    +8.4  0.9     
21 16.04.21 350 (С) 6000 м  слаб. дождь  10/10 120 м 
[Frnb|Ns]
+7.6 +7.1 97 +9  1015.2  0.4  748  292           
00 17.04.21 320 (СЗ) 4400 м  дымка{дождь}  10/10 120 м 
[St]
+7.4 +7 97 +8  1015.5  0.3  748  292           
03 17.04.21 тихо ()   4100 м  дымка  10/10 100 м 
[St]
+7.6 +7.1 97 +8  1016.1  0.6  749  292      0.9     
06 17.04.21 070 (В) 4800 м  слаб. дождь{туман}  10/10 180 м 
[Ns]
+8 +7.6 97 +9  1017.4  1.3  750  292  +7.4    0.9     
09 17.04.21 070 (В) 10 км  {дождь}  10/10 660 м 
[Sc]
+9.3 +8.2 93 +9  1018.1  0.8  750  291      0.0     
12 17.04.21 080 (В) 30000 м  слаб. ливневой дождь  9/9 1000 м кучево-дожд. 
[Cb calv]
+12.4 +7.1 70 +14  1017.4  -0.5  750  288           
15 17.04.21 200 (Ю) 2{10}  20000 м  {гроза, ливн. осадки}  5/5 1000 м кучево-дожд. 
[Cb calv]
+10 +8.3 89 +10  1018.7  1.1  751  290           
18 17.04.21 280 (З) 20000 м  {гроза, ливн. осадки}  8/6 1000 м верхняя 
[Sc|Cs]
+7.7 +6.3 91 +9  1019.7  0.8  751  293    +14     
21 17.04.21 тихо ()   12000 м    ясно 
+4.5 +3.8 95 +5  1020.3  0.4  752  297           
00 18.04.21 тихо ()   0300 м  туман  ясно 
+2.5 +2.5 100 +3  1020.8  0.4  752  300           
03 18.04.21 тихо ()   0300 м  туман  ?/?  
[]
+1.9 +1.9 100 +2  1020.6  -0.3  752  301           
06 18.04.21 тихо ()   0800 м  туман  9/9 210 м 
[St]
+3.1 +3.1 100 +3  1020.6  0.1  752  299  +1.7         
09 18.04.21 280 (З) 20000 м  {туман}  6/0 средняя, верхняя 
[Ac trans|Ci fib]
+10.5 +8.8 89 +12  1019.7  -0.4  752  290           
12 18.04.21 330 (СЗ) 30000 м  {туман}  8/6 1000 м верхняя 
[Cu Sc|Ci fib]
+13.9 +6.7 62 +14  1018.6  -0.8  751  287           
15 18.04.21 320 (СЗ) 30000 м    4/3 1000 м средняя, верхняя 
[Cu Sc|Ac trans|Cs]
+16.4 +8.4 59 +17  1017.5  -0.9  750  284           
18 18.04.21 280 (З) 30000 м  слаб. ливневой дождь, в посл. час гроза  9/8 600 м кучево-дожд., средняя 
[Cb cap|Ac trans]
+12 +9.6 85 +13  1018.1  0.3  750  288    +16.8     
21 18.04.21 тихо ()   10 км  {ливн. осадки}  4/4 1000 м 
[Sc]
+9.8 +9.7 99 +11  1018.7  0.4  751  290      0.0     
00 19.04.21 тихо ()   0200 м  туман{ливн. осадки}  ясно 
+6.7 +6.7 100 +7  1019.3  0.4  751  294           
03 19.04.21 050 (СВ) 5000 м  в посл. час туман  ясно 
+5 +4.8 99 +6  1019.2  -0.2  751  296      0.0     
06 19.04.21 100 (В) 30000 м  {туман}  ясно 
+8.5 +6.3 86 +9  1019.4  0.4  751  293  +4.7    0.0     
09 19.04.21 100 (В) 30000 м    ясно 
+13 +3.9 54 +13  1019.1  751  288           
12 19.04.21 070 (В) 30000 м    6/6 1500 м 
[Cu med, cong]
+15.4 +4.1 47 +15  1018  -0.9  751  286           
Время (UTC), дата Ветер
(°,м/с) 
Видим.   Явления Облачность Т
(°С)
Тd
(°С)
f(%) Тe
(°С)
Pmin
(гПа)
dP
(гПа)
Po
(мм)
O2
(г/м3)
Тmin Tmax R s Состояние
почвы

Для получения пояснительной информации подведите курсор к названию столбца.

ПОГОДА в Бресте - архив

Всё, что Вы хотите узнать о погоде в Бресте - удобно и подробно!

Выберите нужную дату (начиная с 1 января 2019* года) и нажмите кнопку "Найти".
Будут отображены архивные сводки погоды по пункту Брест, начиная с указанной даты.


Отображать данные в формате CSV (для использования в таблицах Excel)


Внимание! Наш архив погоды предназначен исключительно для личного некоммерческого использования в познавательных целях. Если Вам необходимы официальные справки о состоянии погоды (для производственных, юридических, коммерческих и т.п. целей), обращайтесь в органы Росгидромета.

*Примечание: данная дата относится к архиву по метеостанциям СССР (Россия, СНГ, Балтия).
Архив по метеостанциям Зарубежной Европы и Азии (кроме Китая) хранится 10 дней, по другим регионам земного шара (Китай, Африка, Америка, Австралия, Океания) - 1 день.

Брест - район местоположения метеостанции


Название, широта, долгота, высота метеостанции:
Брест 52.1°ш. 23.7°д. 146 м над ур. моря [Беларусь]

Дополнительная информация

В oтличие oт бoльшинства пoгoдных сайтoв мы публикуем пoдрoбную метеoинфoрмацию в детальнoм прoфессиoнальнoм фoрмате.

Характеристики температуры и влажнoсти вoздуха измеряются на высoте 2 м в тени вдали oт зданий и деревьев.
Скoрoсть ветра измеряется на высoте 10 м (на урoвне рoста челoвека скoрoсть ветра ниже в 1.5-2 раза). Если метеoстанция нахoдится в гoрoде или в лесу, тo скoрoсть ветра занижена на 2-4 м/с пo сравнению с oткрытым местoм. Скoрoсть ветра над акватoриями крупных рек и oзёр, а также на вершинах хoлмoв на 2-5 м/с выше, чем в oбычных услoвиях.
Атмoсфернoе давление в разных тoчках местнoсти мoжет значительнo oтличаться oт давления на метеoстанции, в зависимoсти oт услoвий рельефа (при пoдъёме на 10 м давление пoнижается примернo на 1 мм рт.ст.).